AirNav   Phillips 66 Aviation Fuel
 
 708 users online  

2VG2 Upperville Airport
Upperville, Virginia, USA

GOING TO UPPERVILLE?


FAA INFORMATION EFFECTIVE 11 OCTOBER 2018

Location

FAA Identifier: 2VG2
Lat/Long: 38-58-17.8900N / 077-52-11.6550W
38-58.298167N / 077-52.194250W
38.9716361 / -77.8699042
(estimated)
Elevation: 557.7 ft. / 170 m (estimated)
Variation: 09W (1985)
From city: 2 miles SE of UPPERVILLE, VA
Time zone: UTC -4 (UTC -5 during Standard Time)
Zip code: 20184

Airport Operations

Airport use: Private use. Permission required prior to landing
Activation date: 11/1957
Control tower: no
ARTCC: WASHINGTON CENTER
FSS: LEESBURG FLIGHT SERVICE STATION
NOTAMs facility: FDC (NOTAM-D service not available)
Attendance: UNATNDD
Wind indicator: yes
Segmented circle: no
Lights: FOR RWY LGTS CALL 540-592-3465.
International operations: customs landing rights airport

Airport Communications

UNICOM: 122.725
TIKEE STAR: 120.45
WX AWOS-3 at JYO (16 nm NE): 125.225 (703-777-3781)
WX AWOS-3 at OKV (16 nm NW): 124.85 (540-662-6970)
WX AWOS-3 at FRR (18 nm W): 121.85 (540-635-5377)
WX ASOS at IAD (19 nm E): PHONE 703-661-2990

Nearby radio navigation aids

VOR radial/distance  VOR name  Freq  Var
LDNr072/17.2LINDEN VORTAC114.3006W
AMLr285/18.9ARMEL VOR/DME113.5008W
CSNr005/19.8CASANOVA VORTAC116.3006W
MRBr189/24.9MARTINSBURG VORTAC112.1007W
FDKr229/(35.0)FREDERICK VOR109.0008W
DCAr289/39.5WASHINGTON VOR/DME111.0009W

 
NDB name  Hdg/Dist  Freq  Var  ID
NAILR013/31.135110WMSQ -- ... --.-
CAVERNS069/32.624509WLUA .-.. ..- .-
GEORGETOWN283/34.932309WGTN --. - -.

Airport Services

Airframe service: NONE
Powerplant service: NONE

Runway Information

Runway 13/31

Dimensions: 5100 x 100 ft. / 1554 x 30 m
Surface: asphalt
Runway edge lights: medium intensity
RUNWAY 13  RUNWAY 31
Latitude: 38-58.510167N38-58.086167N
Longitude: 077-52.658833W077-51.729667W
Elevation: 557.7 ft.519.9 ft.
Traffic pattern: leftleft
Touchdown point: yes, no lightsyes, no lights

Airport Ownership and Management from official FAA records

Ownership: Privately-owned
Owner: OAK SPRINGS FARM, LLC
8540 MILL REEF RD.
UPPERVILLE, VA 20184
Phone 540-592-3465
Manager: ALIENE LAWS
OAK SPRING FARMS, 8540 MILL REEF RD
UPPERVILLE, VA 20184
Phone 540-592-3465

Additional Remarks

FOR CD CTC POTOMAC APCH AT 866-709-4993.

Instrument Procedures

NOTE: All procedures below are presented as PDF files. If you need a reader for these files, you should download the free Adobe Reader.

NOT FOR NAVIGATION. Please procure official charts for flight.
FAA instrument procedures published for use from 11 October 2018 at 0901Z to 8 November 2018 at 0900Z.

 
STARs - Standard Terminal Arrivals
TIKEE THREE (RNAV)   download (212KB)

Other nearby airports with instrument procedures:

KJYO - Leesburg Executive Airport (16 nm NE)
KOKV - Winchester Regional Airport (16 nm NW)
KFRR - Front Royal-Warren County Airport (18 nm W)
KIAD - Washington Dulles International Airport (19 nm E)
KHEF - Manassas Regional Airport/Harry P. Davis Field (22 nm SE)
 
Loc | Ops | Rwys | IFR | FBO | Links
Com | Nav | Svcs | Stats | Notes


 
Area around 2VG2 (Upperville Airport)
 
Road maps at: MapQuest Bing Google
 
Aerial photo
WARNING: Photo may not be current or correct
Aerial photo of 2VG2 (Upperville Airport)
Photo taken 19-May-2012
looking west.

Do you have a better or more recent aerial photo of Upperville Airport that you would like to share? If so, please send us your photo.

 
Sectional chart

 
Airport distance calculator
Flying to Upperville Airport? Find the distance to fly.

From to 2VG2

Sunrise and sunset
Times for 22-Oct-2018
 Local
(UTC-4)
 Zulu
(UTC)
Morning civil twilight07:0211:02
Sunrise07:2911:29
Sunset18:2322:23
Evening civil twilight18:5022:50

Current date and time
Zulu (UTC)  23-Oct-2018 03:41:22
Local (UTC-4)  22-Oct-2018 23:41:22
 
METAR
KJYO 
15nm E 
230315Z AUTO 00000KT 10SM CLR 06/05 A3014 RMK AO2
KOKV 
16nm NW 
230315Z AUTO 23003KT 10SM CLR 07/02 A3012 RMK AO2
KFRR 
18nm W 
230315Z AUTO 19003KT 10SM CLR 09/03 A3010 RMK AO1
KIAD 
20nm E 
230252Z 18005KT 10SM SCT250 08/04 A3014 RMK AO2 SLP207 T00830044 55006
KHEF 
23nm SE 
230256Z AUTO 00000KT 10SM CLR 06/03 A3015 RMK AO2 SLP221 6//// T00610033 56007 PNO $
KHWY 
24nm S 
230315Z AUTO 00000KT 10SM CLR 08/03 A3013 RMK AO2 T00840030
KMRB 
26nm N 
230253Z AUTO 00000KT 10SM FEW090 04/03 A3011 RMK AO2 SLP198 T00440033 55000
KCJR 
30nm SW 
230315Z AUTO 00000KT 10SM CLR 08/04 A3015 RMK AO2 T00820038
TAF
KIAD 
20nm E 
222303Z 2223/2324 19008KT P6SM SCT130 FM230800 20004KT P6SM FEW080 FEW250 FM231600 25008KT P6SM FEW250 FM232000 29012G20KT P6SM FEW070 SCT250
NOTAMs
Click for the latest NOTAMs
NOTAMs are issued by the DoD/FAA and will open in a separate window not controlled by AirNav.

 

 
 

Would you like to see your business listed on this page?

 If your business provides an interesting product or service to pilots, flight crews, aircraft, or users of the Upperville Airport, you should consider listing it here.  To start the listing process, click on the button below
 
Add a business
 

Other Pages about Upperville Airport

Update a link
 
Copyright © AirNav, LLC. All rights reserved. Privacy Policy  Contact